Погода в Акаригуа

Венесуэла     9°34′07″N   69°12′38″W
темп.,
°C
ветер,
м/с
пор.,
м/с
влажн.,
%
обл.,
%
осадки,
мм/ч
давл.,
гПа
погр.,
м
8 марта, пн
пн823:00+26ссв236582 0.0 101291
02:00+24ссв367354 0.0 1012198
05:00+24ссв377793 0.1 1012252
08:00+25всв377797 0.1 1014384
11:00+30всв2356100 0.1 10151104
14:00+34всв1243100 0.2 10121896
17:00+32ссв3347100 0.0 10101499
20:00+26ссв596891 0.0 1011363
9 марта, вт
вт923:00+25ссв497025 0.0 1014357
02:00+24с497215 0.0 1013385
05:00+24ссв497281 0.0 1013406
08:00+25ссв387179 0.0 1014477
11:00+29св465477 0.0 10151067
14:00+32св444568 0.1 10111621
17:00+30ссв4546100 0.0 10091203
20:00+25с5106398 0.0 1011434
10 марта, ср
ср1023:00+24ссв4106049 0.0 1013369
02:00+23ссв376325 0.0 1012208
05:00+22ссв376683 0.0 1012215
08:00+23св376991 0.0 1014374
11:00+28всв3449100 0.0 1014957
14:00+33всв2234100 0.0 10111557
17:00+32св1234100 0.0 10081713
20:00+26с4851100 0.0 1011293
11 марта, чт
чт1123:00+24с3662100 0.0 1013222
02:00+23св3668100 0.0 1012238
05:00+22ссв377177 0.0 1012242
08:00+23св366941 0.0 1014311
11:00+30всв23440 0.0 10141282
14:00+36юв11310 0.0 10102099
17:00+34ссв11320 0.0 10082288
20:00+28ссв375112 0.0 1010329
12 марта, пт
пт1223:00+26ссв356511 0.0 1012236
02:00+24св476820 0.0 1012294
05:00+23ссв487164 0.0 1011325
08:00+24св366843 0.0 1014322
11:00+30всв23470 0.0 10141187
14:00+36вюв11340 0.0 10111909
17:00+34зсз01348 0.1 10082228
20:00+28с365541 0.3 1011445